Wind_Speed
47 46 45 44 42 42 41 41 41 41 41 40 39 39 38 37 36 36 35 34 33 32 32 30 29 28 27 26 26 25 25 25 24 24 23 23 22 22 21 21 21 21 20 20 20 20 19 19 19 18 19 18 17 17 17 17 17 17 16 16 16 15 14 13 12 12 11 10 8 8 8 6 6 7 9 11 12 11 13 14 14 12 11 10 9 8 8 8
49 48 47 46 45 44 43 43 42 42 42 41 41 40 40 39 39 38 37 36 35 34 33 32 31 30 29 28 27 26 26 26 26 25 24 24 23 23 22 22 22 22 22 22 21 21 21 20 20 20 19 19 18 18 17 18 18 17 17 17 17 16 15 14 13 12 12 11 9 9 9 8 7 7 8 10 10 10 12 13 14 14 13 12 10 9 9 9
51 50 49 48 47 46 45 44 44 44 43 42 42 41 41 41 40 40 39 38 37 36 35 34 33 32 31 30 28 28 27 27 27 26 26 25 25 24 24 24 23 23 23 23 22 22 22 22 21 21 21 20 19 18 18 19 18 18 18 18 18 17 16 15 14 14 13 12 11 10 10 9 8 9 9 10 10 10 12 13 13 14 14 13 12 11 11 11
52 51 50 49 48 48 47 46 46 45 44 43 43 43 43 42 42 41 41 40 39 38 37 36 35 34 32 31 30 29 28 28 28 27 26 26 26 26 25 25 25 25 24 24 24 23 23 23 23 22 22 22 21 20 20 20 20 20 19 19 18 18 17 16 15 15 15 14 13 12 12 11 10 10 11 11 10 11 12 14 14 14 14 14 13 13 12 13
54 53 52 51 50 49 48 48 47 46 46 45 44 44 43 43 43 43 42 41 41 40 39 37 36 35 34 32 31 30 29 29 29 28 27 27 27 27 26 26 26 26 26 25 25 25 25 24 24 24 23 23 23 22 21 21 21 21 20 19 19 19 18 17 16 16 16 15 14 13 13 13 12 12 13 12 12 12 12 14 15 15 15 15 16 16 15 15
55 55 54 53 52 51 50 49 48 48 47 46 45 44 44 44 43 43 43 42 42 42 41 40 38 37 35 34 33 31 30 31 30 29 28 28 28 28 27 27 27 27 27 27 27 26 26 26 26 25 25 24 24 23 22 22 22 21 21 20 19 20 20 18 18 18 18 16 15 14 14 14 13 14 16 15 15 14 14 15 16 16 16 17 17 18 19 19
56 56 55 54 53 53 52 51 50 49 48 48 47 46 45 44 44 43 43 43 42 42 42 42 41 39 37 36 34 33 32 32 32 29 29 29 28 28 28 28 28 28 28 28 28 28 28 28 27 27 26 26 25 24 23 23 22 21 21 20 20 20 20 20 19 20 19 18 17 15 15 15 15 16 18 19 18 17 16 17 18 18 17 18 19 20 21 21
57 56 56 55 55 54 53 53 52 51 50 49 48 47 46 45 44 44 43 43 42 42 42 43 42 41 40 38 37 35 33 34 33 31 30 30 29 29 29 29 30 29 29 29 29 29 29 29 29 28 27 27 25 24 24 23 22 22 21 21 20 20 21 21 21 22 20 19 18 16 16 16 16 17 19 20 20 19 19 20 20 20 19 20 20 21 21 21
57 57 56 56 56 55 54 54 53 52 51 50 49 48 47 46 45 44 44 43 43 42 42 42 43 42 42 40 39 37 34 35 35 33 32 31 31 31 31 31 31 30 30 30 30 30 30 30 30 29 28 27 26 25 24 24 23 22 21 20 20 20 21 22 23 23 22 20 18 17 17 18 17 18 20 21 21 20 21 22 22 21 20 21 21 22 22 22
58 57 57 56 56 56 55 55 54 53 52 51 49 49 48 47 46 45 44 43 43 43 42 43 43 43 43 42 42 40 36 37 38 35 33 32 32 32 32 32 32 32 31 31 31 31 31 30 30 29 29 28 26 26 25 24 23 22 21 20 20 21 21 23 23 23 22 21 20 19 19 19 19 20 21 23 22 21 22 23 23 22 22 22 22 22 22 22
59 58 58 57 57 56 56 55 54 54 53 52 50 49 48 48 47 47 46 44 43 43 43 43 43 43 43 43 44 42 39 40 40 37 35 34 34 34 33 33 33 33 32 32 32 32 31 31 30 29 29 28 27 26 26 25 24 22 21 20 20 21 22 23 22 22 21 21 21 20 20 21 21 21 22 23 22 22 23 24 23 23 23 23 24 24 23 23
60 60 59 59 58 57 57 56 55 54 54 53 52 50 49 49 48 48 47 46 45 44 43 43 43 43 43 44 45 43 41 42 41 39 38 36 35 35 35 34 34 34 33 33 33 32 32 31 30 29 29 28 27 27 27 26 25 23 21 21 21 22 23 22 20 20 21 22 22 22 22 21 21 22 23 23 23 23 23 23 23 23 23 24 24 24 25 25
61 61 60 60 59 58 57 57 56 55 54 54 53 52 51 50 49 48 48 47 47 46 45 44 43 43 43 45 45 43 42 43 42 41 40 38 38 37 36 36 35 35 34 34 34 33 32 31 30 30 30 29 29 28 28 27 25 24 23 23 24 25 23 21 19 20 20 22 22 23 23 22 21 22 23 23 24 24 23 23 23 24 24 25 25 25 26 26
62 62 61 61 60 60 59 58 57 56 55 54 54 53 52 51 50 49 49 48 48 47 47 46 44 44 43 45 45 43 42 42 43 43 41 40 40 39 38 37 36 36 36 35 35 34 33 31 30 31 31 31 31 29 28 27 25 24 25 26 28 27 23 21 21 21 21 22 23 23 24 24 22 23 24 24 26 25 25 24 24 25 25 26 26 27 28 28
61 61 61 61 61 61 60 60 58 57 56 55 55 54 53 53 52 51 50 49 49 48 48 47 46 45 44 46 46 43 42 42 42 42 43 43 42 41 40 39 38 38 37 37 36 35 33 32 31 32 33 33 32 31 28 26 26 26 27 30 31 28 25 23 23 23 22 23 24 25 26 26 24 24 25 26 27 27 27 26 26 26 27 27 28 29 30 30
62 61 60 60 61 61 61 61 60 59 58 57 56 55 54 53 53 52 51 50 50 49 48 47 47 46 45 46 46 45 43 42 42 42 43 44 44 43 42 40 39 39 39 39 37 36 34 33 32 33 34 35 34 31 27 26 28 28 29 32 32 29 27 26 25 24 24 25 26 27 28 28 27 27 27 28 28 28 28 28 28 28 28 29 30 30 31 32
64 62 61 60 60 61 61 62 62 61 60 58 57 56 55 54 53 52 52 51 51 51 50 49 49 48 46 47 48 46 44 42 42 43 44 44 45 44 43 42 41 40 40 40 38 37 35 34 34 35 36 37 35 30 27 29 30 30 31 32 32 31 30 28 26 25 24 25 27 28 29 29 29 29 29 29 30 30 30 30 30 30 30 31 31 32 33 34
66 64 62 61 60 60 60 61 62 62 61 60 59 58 56 55 54 53 53 53 52 52 52 51 51 48 46 48 49 48 46 44 44 44 44 44 45 45 45 44 43 42 42 41 40 38 36 35 36 37 40 38 33 29 29 31 31 31 32 32 32 33 33 31 27 25 25 26 27 29 30 30 30 30 31 30 30 31 31 31 31 31 31 32 32 33 34 35
67 66 65 63 62 61 60 60 61 62 62 61 60 59 58 56 55 55 55 54 54 54 54 53 52 50 48 50 50 50 48 46 45 45 44 45 45 46 46 45 45 45 44 43 41 39 37 36 37 41 42 37 32 31 31 32 32 32 32 32 33 34 34 32 27 25 26 26 29 30 31 32 31 30 31 31 31 31 32 32 31 32 32 32 33 33 34 35
68 67 66 65 65 64 63 61 61 61 61 61 61 60 59 58 57 57 56 56 55 55 54 53 52 51 51 51 52 51 50 48 47 46 46 46 46 46 46 46 47 47 46 45 43 41 39 37 41 45 41 36 34 34 33 33 33 32 32 33 33 34 35 32 28 26 26 27 30 32 32 34 32 30 31 32 32 31 31 31 32 32 32 32 33 33 35 35
69 68 67 66 66 66 65 64 63 62 62 61 61 60 60 60 60 58 58 57 56 56 55 54 53 52 52 53 53 52 51 50 49 48 48 47 47 46 47 48 48 48 48 47 45 44 41 39 45 46 40 37 37 36 35 34 34 33 33 33 34 35 36 33 29 28 28 28 31 32 32 33 33 31 31 32 32 32 32 32 33 33 33 33 34 34 35 36
72 69 68 67 66 66 66 65 65 64 64 63 62 62 62 62 61 60 60 58 57 57 56 55 54 53 54 54 53 53 52 51 51 50 49 48 48 47 48 49 49 49 49 48 47 46 43 43 47 45 40 40 40 37 37 36 35 35 34 34 35 37 35 33 31 31 30 30 31 32 31 33 34 33 33 32 33 34 33 33 34 34 35 35 35 36 36 37
74 71 70 68 67 66 66 65 65 65 65 65 65 65 65 64 63 62 62 60 58 58 57 56 55 54 55 54 54 54 53 52 52 52 51 50 50 50 49 49 50 49 49 50 50 48 45 46 48 46 43 43 41 40 39 38 37 37 36 35 37 38 36 34 34 32 31 31 32 32 31 34 35 34 34 34 34 35 34 34 34 35 35 36 36 37 37 38
77 75 72 70 69 67 66 65 63 63 65 66 67 68 67 66 66 65 64 61 58 58 58 56 55 55 56 56 55 54 53 54 54 53 53 53 53 52 50 50 50 49 50 52 52 48 46 48 49 49 47 45 43 42 41 41 40 38 37 37 38 40 38 36 35 34 33 32 33 33 31 35 37 35 36 37 36 36 35 34 34 34 35 35 36 37 38 38
80 78 75 73 71 69 69 66 62 63 64 65 67 69 69 68 68 67 66 63 57 57 59 57 56 56 57 56 55 55 56 55 55 55 55 55 54 53 52 52 50 49 51 52 51 48 48 49 52 52 50 47 44 44 45 45 42 39 39 40 41 40 40 38 36 35 34 34 36 34 32 35 38 37 37 38 38 36 35 35 35 35 35 36 37 37 38 38
82 80 77 75 73 72 71 66 65 66 65 65 68 68 68 69 69 68 68 65 56 54 59 59 56 55 56 57 57 59 58 54 56 57 57 57 56 55 53 52 51 51 52 53 51 47 49 52 53 53 51 49 47 47 49 47 42 40 42 44 43 41 41 40 38 37 35 36 37 36 34 35 38 39 39 39 38 37 37 37 37 37 37 38 39 39 40 40
83 82 79 76 75 75 72 69 70 69 67 68 69 68 68 69 70 69 70 66 55 52 57 59 57 55 56 59 59 60 57 55 59 60 59 59 58 56 55 53 53 54 54 54 50 47 50 53 53 53 52 51 50 50 51 49 44 42 45 46 44 43 43 42 40 39 37 37 37 39 39 35 35 40 41 40 39 38 38 39 39 39 40 41 42 42 42 43
84 83 81 78 77 76 74 73 74 72 71 73 71 69 69 70 71 71 72 67 54 51 56 58 58 57 57 59 60 60 58 58 60 61 60 61 58 57 56 55 56 56 56 54 50 49 52 52 53 54 53 52 53 54 53 50 47 46 47 48 47 46 45 43 42 40 39 38 36 41 43 37 34 39 42 40 40 40 40 41 41 42 43 43 44 44 44 45
84 84 83 81 80 77 75 74 75 76 78 78 76 74 73 73 73 73 73 66 54 52 56 57 58 59 59 60 61 61 61 60 61 61 61 61 59 58 57 57 57 56 56 55 52 51 51 52 53 54 53 54 55 55 54 53 50 49 50 50 50 48 46 45 44 42 42 38 38 44 46 40 34 37 42 42 42 43 42 43 44 45 46 46 46 47 48 49
83 84 83 83 81 79 76 75 76 79 81 81 80 78 78 77 76 77 75 65 57 55 55 57 58 59 61 62 62 63 62 62 61 61 61 61 60 60 58 58 58 56 56 55 53 52 52 53 54 53 54 55 56 55 55 55 53 53 53 52 52 50 48 47 45 45 44 39 41 47 48 42 34 35 43 45 44 45 45 46 47 48 49 49 50 50 51 52
83 83 84 83 82 81 79 78 79 82 82 82 82 82 82 81 81 81 73 62 60 58 55 57 58 59 61 62 63 64 64 64 63 63 62 62 62 61 59 59 59 57 56 54 54 54 54 54 54 55 55 55 56 57 57 57 56 56 55 55 55 52 50 48 47 48 46 43 46 49 48 44 36 36 44 46 47 49 49 50 51 51 52 53 53 54 55 55
85 84 85 84 82 81 80 80 82 84 84 83 85 85 84 85 84 78 66 61 63 59 56 57 58 60 62 62 64 65 66 67 66 65 64 64 63 61 60 59 58 58 55 54 56 56 55 54 54 55 55 56 58 59 59 59 58 58 57 57 57 54 52 51 50 51 50 47 48 49 49 45 40 41 47 47 49 51 52 53 54 55 56 56 57 58 58 59
87 86 86 86 83 81 80 81 83 86 86 86 88 88 87 88 83 71 62 62 63 61 59 60 61 63 64 64 64 66 68 69 68 67 66 64 63 61 60 59 58 58 56 56 57 56 55 54 54 55 56 58 60 60 60 60 60 59 59 59 59 57 56 54 53 54 52 51 50 50 49 46 43 47 51 50 51 52 54 56 57 58 59 60 61 61 62 62
89 89 88 87 86 84 83 82 83 86 88 88 89 89 91 89 77 65 62 62 62 63 64 63 63 65 66 66 67 67 69 69 68 68 66 65 63 61 61 60 60 59 59 58 57 56 55 54 55 57 58 59 60 60 60 60 60 60 61 61 60 60 60 58 57 56 54 54 53 51 49 47 47 51 54 54 55 56 57 59 59 61 63 64 65 65 64 62
92 91 91 90 88 87 85 83 84 86 88 89 90 92 93 85 71 65 64 62 63 65 66 67 67 66 67 68 68 69 71 70 69 69 67 65 64 62 62 62 61 61 61 60 58 57 56 54 55 57 57 58 59 59 59 60 60 60 62 62 62 64 65 62 60 57 56 56 53 51 51 50 51 52 54 57 60 61 62 62 63 64 66 68 68 67 65 63
94 93 93 91 89 87 85 84 86 88 90 91 94 95 89 77 70 69 69 67 67 67 68 70 69 66 65 65 66 68 70 71 70 69 67 66 64 62 61 61 62 62 62 63 61 59 57 55 55 57 57 57 58 58 59 59 59 59 60 61 64 67 67 64 62 59 58 57 53 52 53 53 54 54 55 59 62 64 65 66 67 69 70 71 69 67 65 64
96 95 94 91 88 86 86 86 88 91 93 94 96 93 83 76 74 75 73 71 70 69 70 70 68 65 63 61 62 64 67 69 69 69 68 67 65 62 60 61 63 62 63 65 64 61 60 58 58 59 59 59 59 58 58 58 58 59 59 61 65 66 65 65 63 60 59 58 54 53 54 54 55 56 58 62 64 66 68 69 71 73 73 71 69 67 66 66
96 95 94 91 88 87 87 88 90 93 95 97 98 91 81 77 77 77 76 75 74 73 73 71 68 65 63 61 61 62 65 65 66 68 69 69 66 62 61 63 63 63 64 66 65 62 63 62 61 61 61 61 61 60 59 59 60 61 61 63 64 63 63 64 63 61 60 60 56 54 55 55 56 58 61 64 67 69 71 73 75 75 74 72 69 67 67 68
95 97 95 91 89 88 88 91 92 94 97 100 98 89 78 76 77 78 80 79 78 78 76 73 71 69 65 64 63 64 65 64 64 67 68 69 67 64 64 66 65 65 67 68 66 64 65 64 62 62 63 64 63 61 60 61 63 63 63 63 63 62 62 62 63 62 62 61 59 57 56 55 56 60 63 66 68 72 74 76 78 77 75 72 71 70 71 72
94 97 95 92 91 91 91 94 96 98 100 101 97 86 79 79 80 80 82 82 82 81 77 75 75 73 69 67 67 67 67 66 65 66 67 67 67 65 66 68 68 68 70 70 67 66 66 66 65 65 65 64 62 62 63 64 64 63 62 61 62 63 63 63 63 62 63 63 61 59 57 56 58 62 65 68 71 75 78 79 80 79 78 76 75 75 76 76
94 96 95 93 94 94 95 99 101 102 102 100 94 85 82 83 82 81 81 83 83 81 79 78 77 75 72 70 70 70 70 67 65 66 66 65 66 66 67 69 70 71 71 70 67 67 68 68 67 66 65 64 63 64 65 65 64 64 63 62 62 64 64 64 64 64 65 65 63 62 60 58 60 64 66 69 73 77 80 81 83 83 83 82 81 80 79 78
95 95 94 94 95 95 98 102 104 104 103 99 93 88 86 86 84 83 83 84 84 83 81 81 79 77 76 74 72 72 72 69 66 66 66 65 66 67 68 70 71 72 72 70 67 67 69 69 67 66 65 66 66 65 65 65 65 64 63 63 64 65 66 67 66 64 65 65 64 65 64 61 63 67 69 73 76 78 80 82 84 85 85 84 83 82 81 81
96 96 94 95 96 96 99 103 104 105 103 98 94 93 92 89 86 86 85 85 85 85 83 82 80 80 79 77 75 74 73 71 68 66 67 67 67 68 69 71 71 72 72 71 69 69 71 70 69 67 66 66 67 66 66 65 65 65 65 66 67 67 68 69 67 65 66 66 67 70 68 65 67 70 73 74 76 77 78 80 82 83 84 84 84 84 84 85
96 96 96 97 98 98 100 103 104 104 102 99 98 97 94 91 88 86 85 86 86 86 85 83 82 81 81 80 78 76 75 74 70 68 69 69 69 70 71 72 73 74 75 74 73 73 74 74 73 71 68 65 65 66 66 67 68 69 68 68 68 68 69 69 68 68 68 66 69 72 71 69 71 74 76 76 77 79 80 80 82 84 85 85 85 86 87 88
97 98 99 99 100 101 102 103 104 104 102 101 101 98 96 94 91 88 87 88 87 86 86 85 83 83 83 82 79 77 76 75 72 70 69 68 69 72 74 75 76 77 78 78 78 78 78 78 78 76 72 68 67 66 67 70 72 71 69 68 68 69 70 70 71 71 68 67 70 73 72 72 75 77 78 79 81 84 85 85 86 87 88 87 88 89 89 90
101 102 103 103 103 105 105 105 106 106 105 103 101 100 98 97 94 92 92 91 89 88 87 87 86 86 85 83 80 78 76 75 75 73 71 69 69 72 76 78 79 80 81 81 81 82 82 82 81 80 77 74 71 69 69 71 72 72 71 71 72 73 74 75 76 74 73 74 74 73 75 79 80 81 82 82 85 88 88 89 90 90 89 89 90 91 92 94
107 107 107 106 106 107 107 106 106 105 104 103 102 100 99 98 97 97 96 94 92 91 91 91 90 89 87 84 82 80 79 79 79 77 75 74 73 74 76 78 80 82 83 83 84 85 84 82 81 82 81 79 76 74 73 73 73 73 73 73 74 76 77 78 78 77 79 80 77 76 81 83 82 84 86 86 89 91 92 92 92 91 92 93 94 95 97 98
110 111 110 109 109 109 108 105 103 102 101 101 101 100 99 99 99 99 99 97 96 96 96 95 92 89 87 86 85 85 84 84 84 81 79 78 78 78 78 79 81 83 85 86 87 88 87 84 82 83 83 81 80 78 77 76 76 75 75 75 75 77 79 80 80 80 81 82 80 81 84 84 84 88 90 90 93 95 94 94 94 94 96 97 98 99 100 101
112 112 112 111 111 110 108 105 104 103 103 102 101 99 98 98 98 98 98 99 99 99 98 96 93 89 89 89 90 90 89 88 86 84 83 83 83 83 83 83 83 85 87 88 88 88 88 85 84 85 86 85 84 82 81 80 80 78 78 77 77 79 81 82 82 83 85 85 85 87 86 84 86 91 93 94 96 96 96 96 96 97 99 99 100 101 102 102
112 113 113 113 112 111 109 106 105 104 103 103 102 100 99 98 97 98 99 101 101 100 99 96 93 91 91 92 93 92 91 89 89 88 88 88 88 87 86 86 86 87 88 89 89 89 88 85 84 86 88 88 87 86 86 85 84 83 81 78 77 79 82 84 85 87 89 89 89 91 89 86 87 91 95 96 96 96 97 98 99 100 100 100 101 102 102 101
115 114 114 114 113 112 111 109 107 105 104 102 101 100 99 98 97 98 100 101 100 99 99 97 94 94 95 95 95 93 92 92 92 92 92 92 91 89 89 89 89 90 91 91 91 91 90 88 86 86 87 86 85 87 89 88 89 88 81 77 77 80 83 86 88 90 90 90 91 92 90 87 89 94 97 98 99 99 100 101 101 101 101 101 101 101 101 101
118 116 115 115 114 113 113 111 110 109 107 104 101 100 100 98 97 98 99 99 98 97 96 95 95 96 97 97 96 96 95 96 95 95 94 94 93 92 92 91 91 92 93 93 93 92 91 90 88 87 88 86 84 86 87 90 93 89 79 76 81 85 87 89 89 90 91 92 93 93 92 91 93 95 97 100 101 102 102 103 103 102 101 101 101 101 101 101
Wind_Direction
236 237 237 238 239 239 240 241 242 243 244 244 244 245 246 247 248 249 251 253 254 255 257 259 260 261 262 263 264 264 265 266 267 268 269 270 272 273 275 275 276 276 277 277 277 277 277 277 278 278 278 278 278 279 280 281 282 283 284 285 286 287 289 289 290 290 289 291 294 296 293 288 286 285 283 281 285 290 288 288 290 291 292 294 297 297 295 297
236 237 238 238 238 239 240 241 242 243 244 245 245 246 246 247 248 249 250 252 253 255 256 258 259 261 261 262 263 263 264 265 266 267 268 269 270 271 272 273 274 275 276 276 276 276 277 277 277 277 277 277 277 278 278 278 279 279 280 281 282 284 285 286 286 284 282 281 283 286 288 289 288 286 285 285 291 295 289 289 294 297 298 299 300 300 298 296
237 238 239 239 239 240 241 242 243 244 245 245 246 247 247 247 248 249 249 251 252 254 255 257 258 260 261 261 262 262 263 264 265 267 268 269 269 269 270 270 271 272 274 275 275 276 276 276 276 276 276 276 276 276 275 275 275 275 277 278 280 281 281 284 284 282 279 277 277 279 281 283 285 286 286 287 291 292 289 291 293 294 296 298 299 298 296 292
237 238 239 240 241 241 242 243 244 246 246 246 246 247 248 248 249 249 250 251 252 253 255 256 257 259 260 261 262 262 263 264 265 266 267 268 269 269 270 270 271 271 272 274 274 275 275 275 275 275 275 275 275 274 273 273 274 274 275 277 279 280 280 282 283 281 279 277 276 277 279 278 279 281 281 283 287 286 288 291 292 291 292 292 291 289 287 286
237 238 239 240 241 242 243 244 245 246 247 247 247 247 248 249 249 250 250 251 252 253 254 255 256 258 259 260 261 262 262 264 265 266 267 268 269 270 271 271 272 272 272 273 274 274 274 274 274 274 275 275 274 274 274 274 274 274 275 277 279 280 281 282 282 280 279 279 279 279 280 278 277 277 274 273 277 279 283 287 288 290 293 292 290 287 284 282
237 238 239 239 240 242 243 244 245 246 247 248 248 248 249 249 250 251 251 252 253 253 254 255 256 256 258 259 260 261 262 264 265 266 267 268 269 270 271 271 272 272 272 272 272 273 273 274 274 274 275 275 275 275 275 275 275 276 276 276 278 280 281 282 281 280 279 280 280 280 280 278 278 278 275 271 268 270 274 277 280 283 288 290 291 290 288 286
237 238 239 239 240 241 242 244 245 246 247 248 249 249 250 250 251 252 252 253 254 254 255 255 255 256 257 258 259 260 261 263 264 265 266 267 268 270 271 271 271 271 271 271 271 272 272 273 274 274 275 275 276 276 276 276 276 276 276 276 277 279 281 282 281 280 279 280 280 279 279 277 277 278 276 273 270 270 271 272 273 275 278 281 284 286 287 287
238 238 239 239 240 241 242 243 244 245 246 247 248 250 250 251 252 252 253 254 255 255 256 257 257 256 257 257 258 258 259 262 263 264 265 266 268 269 270 271 271 271 271 271 271 271 272 273 274 275 276 276 277 277 277 277 276 276 276 277 278 279 281 281 281 280 279 279 278 279 280 279 277 277 277 276 274 274 275 275 274 274 276 278 280 282 284 286
237 238 239 240 240 241 242 243 243 244 246 246 248 249 250 251 252 252 253 254 255 256 257 258 258 258 258 257 258 257 258 261 262 262 263 265 267 268 269 270 271 271 271 271 271 272 272 273 275 276 277 278 279 279 279 278 276 276 277 280 281 280 280 279 278 279 280 280 281 282 282 281 279 278 280 279 278 281 282 280 280 280 281 281 282 283 285 287
237 238 239 239 240 241 241 242 243 244 245 246 247 248 249 250 251 252 253 254 255 256 257 258 259 259 259 258 258 257 257 259 261 261 262 264 265 267 267 269 270 271 271 271 272 272 272 274 275 277 278 279 280 280 279 278 277 278 279 281 281 280 279 278 277 279 282 284 285 284 283 282 280 280 281 281 283 286 285 284 285 287 288 287 287 287 288 288
236 237 238 239 239 240 241 242 242 243 244 245 246 247 248 249 250 251 252 253 254 255 256 257 258 259 259 259 258 257 256 257 259 260 261 262 264 265 267 268 269 270 271 271 272 272 272 274 275 277 278 278 279 279 279 278 279 280 281 281 280 279 277 276 278 282 285 286 286 284 282 281 282 282 282 283 285 285 284 285 287 289 290 289 289 289 289 289
236 237 237 238 239 239 240 241 242 242 243 244 245 246 247 248 249 250 251 251 252 253 254 256 257 257 258 259 259 257 256 256 257 259 260 261 263 265 266 267 268 270 270 271 271 272 273 274 275 277 277 277 277 277 277 277 278 281 282 280 278 276 275 275 280 284 286 286 285 284 282 281 282 282 283 284 285 283 283 285 287 288 289 288 288 289 289 289
237 237 237 237 238 239 239 240 240 241 242 243 244 245 245 246 247 248 249 250 251 252 253 253 255 255 257 258 258 258 257 256 256 257 259 260 262 264 265 266 268 269 270 270 270 271 272 273 275 275 276 276 275 274 274 275 278 282 283 281 276 273 272 276 279 279 281 283 284 284 283 282 281 282 284 284 283 283 283 284 286 287 287 288 289 289 289 290
238 238 238 238 238 238 238 239 239 240 241 242 243 243 244 245 246 247 248 249 250 250 251 252 253 254 255 257 257 257 257 257 257 257 258 259 260 262 264 265 267 268 269 270 270 271 272 273 274 275 274 274 273 272 272 275 279 281 281 279 274 271 272 275 276 275 276 279 280 281 281 281 281 281 282 282 282 283 284 284 284 284 285 287 288 289 289 291
238 238 239 239 239 239 239 238 238 238 239 240 241 242 243 243 244 245 246 247 248 249 250 251 252 253 254 256 257 257 257 257 257 257 258 257 258 259 261 263 265 267 268 269 270 271 272 273 274 274 273 272 271 270 272 276 279 278 277 276 273 273 274 273 273 274 275 277 278 279 279 278 278 279 279 279 280 282 283 283 283 282 283 284 285 287 288 289
236 237 238 239 240 240 239 239 238 238 238 239 240 241 241 242 243 244 245 246 247 248 249 250 251 251 253 256 256 256 256 256 257 257 257 257 257 258 259 261 263 264 266 268 269 270 271 273 273 273 272 271 270 270 273 277 276 273 273 274 275 276 276 273 272 273 274 276 277 277 277 278 279 278 277 278 279 281 282 282 283 283 282 283 284 285 286 287
234 235 236 238 240 240 240 240 239 238 238 238 239 240 240 241 242 243 245 246 247 247 248 249 250 250 251 254 256 256 255 255 255 256 256 256 256 256 257 258 260 262 264 265 267 269 270 272 272 272 271 269 268 270 275 274 272 271 272 274 276 278 276 275 274 275 276 277 277 277 277 278 279 279 279 280 281 281 281 281 282 282 282 282 282 283 284 285
234 234 235 236 238 239 240 241 240 239 239 239 239 240 240 241 242 243 244 245 246 247 247 247 248 249 251 253 255 255 255 254 255 255 255 256 256 256 256 257 258 260 261 264 265 267 269 271 272 272 269 267 269 272 272 271 270 270 271 274 276 276 276 276 276 279 280 279 279 279 279 279 279 281 282 282 281 281 281 281 282 282 281 281 281 282 283 284
234 234 234 235 236 237 238 239 241 241 240 240 240 240 241 241 242 243 245 246 247 247 248 248 249 249 250 252 254 255 255 254 254 255 255 255 255 255 255 256 257 258 259 261 263 265 267 269 271 269 267 268 271 272 270 269 270 270 271 273 274 275 275 276 279 281 281 283 283 282 283 284 284 285 285 283 282 281 281 281 281 281 281 281 281 282 283 284
232 233 234 235 236 236 236 236 238 240 241 241 241 241 242 242 243 244 245 246 248 249 250 250 251 250 250 252 253 254 255 255 255 256 256 256 256 255 255 255 256 257 258 259 261 263 264 267 268 266 267 270 271 270 269 268 269 269 270 270 272 273 274 276 279 281 282 284 284 285 287 287 287 288 287 286 286 285 284 284 283 282 282 282 282 283 283 284
230 232 233 234 236 237 237 236 236 238 239 241 242 243 243 243 243 244 245 247 249 251 251 251 251 252 251 252 253 254 255 256 256 256 256 257 257 257 256 255 255 256 257 258 259 261 262 264 265 265 268 270 268 268 268 268 269 268 268 268 270 271 272 277 281 282 283 284 284 286 288 288 289 290 289 289 289 289 289 288 286 284 283 282 281 282 282 283
229 230 232 233 235 236 237 238 237 238 239 239 240 241 242 242 243 243 245 247 249 251 252 252 252 252 252 252 253 254 255 256 256 257 257 257 258 257 257 256 255 255 256 257 258 258 260 262 263 266 268 268 267 267 267 268 268 268 267 268 269 269 272 278 280 282 283 285 285 286 288 289 290 291 290 291 290 291 291 290 288 286 285 283 282 282 283 284
229 228 230 231 233 235 237 238 238 239 240 240 241 241 241 241 241 242 244 246 249 251 251 252 252 252 253 253 253 254 255 256 257 257 258 257 257 257 257 258 257 256 257 257 256 256 258 261 263 266 266 266 267 267 267 267 267 267 268 268 269 270 273 277 279 281 284 287 286 286 289 289 288 290 290 291 291 291 292 291 289 288 288 287 285 285 285 286
230 228 229 230 231 233 235 236 237 239 240 241 241 241 241 241 242 243 245 246 248 251 252 251 252 253 253 253 253 254 255 255 256 257 257 257 257 257 258 258 258 258 258 257 257 257 258 260 263 264 264 265 266 267 267 266 265 267 269 269 269 271 273 275 278 282 285 287 285 286 289 287 287 289 290 291 291 291 292 291 290 290 290 290 288 287 287 288
232 230 229 229 230 232 234 234 236 238 239 240 241 241 241 242 243 244 246 247 247 251 253 253 252 252 253 253 253 253 252 253 255 256 256 257 257 257 258 258 258 259 259 258 257 258 259 260 260 262 263 264 266 266 266 265 265 268 270 269 268 270 273 275 278 281 284 285 284 286 288 284 285 289 289 290 291 291 292 291 291 291 291 291 290 290 290 290
234 233 231 230 230 231 233 233 235 236 237 240 241 241 242 242 244 245 247 248 247 250 254 255 254 253 254 254 253 252 251 252 255 254 254 255 256 256 256 258 259 259 258 258 257 258 259 259 259 260 262 264 265 266 265 264 265 267 268 267 269 270 272 275 277 280 282 283 283 285 284 281 285 287 287 288 290 291 290 290 290 290 290 290 291 291 292 292
235 235 234 233 231 231 232 233 235 236 237 239 240 240 242 243 245 246 248 249 247 248 254 257 256 254 254 254 254 253 253 253 254 254 253 254 255 255 256 257 258 257 257 257 257 258 259 258 259 260 261 262 264 264 264 265 265 265 266 267 269 269 270 273 275 278 281 282 284 283 280 279 283 284 286 288 288 288 288 288 289 289 290 291 292 293 293 292
235 236 236 235 234 233 232 233 235 236 237 238 239 240 242 243 245 246 247 248 246 247 252 256 257 256 254 254 255 255 253 253 254 254 254 254 255 256 256 256 256 256 257 257 257 257 258 259 259 260 260 262 262 263 264 265 265 264 264 266 267 268 270 271 273 277 280 281 282 279 276 277 279 281 284 286 285 285 285 286 287 289 290 291 292 293 292 291
235 236 236 236 236 235 234 234 236 237 238 238 239 240 241 242 243 245 246 247 245 245 249 253 256 256 255 254 254 254 253 252 253 254 255 255 255 256 256 256 256 257 258 258 257 257 258 259 259 259 260 261 261 263 264 265 265 264 264 265 266 268 269 271 273 275 277 280 279 273 272 275 278 281 283 282 281 282 282 283 284 286 288 288 288 289 289 288
236 236 237 237 236 236 235 235 237 238 239 239 240 240 240 241 242 243 244 245 244 242 245 249 253 255 255 253 253 252 252 252 252 253 254 255 255 255 255 256 257 258 258 259 259 258 258 258 259 259 259 260 261 263 264 265 265 264 264 264 265 267 269 270 272 273 275 277 272 269 271 275 279 280 279 279 279 279 279 281 282 283 285 285 286 286 286 286
235 236 237 238 237 237 236 236 237 239 240 241 241 241 241 240 240 242 243 244 244 243 242 245 250 254 255 254 253 252 251 251 251 251 251 252 254 254 255 256 258 258 259 261 261 260 258 258 259 259 260 260 261 262 262 263 264 264 264 265 266 267 269 270 270 271 272 272 268 269 273 275 278 276 273 275 277 277 279 280 281 281 282 283 284 284 284 284
235 236 237 237 237 237 237 237 238 239 240 240 241 241 241 241 241 243 245 245 247 246 243 244 247 250 253 253 253 252 251 251 251 251 251 251 252 254 256 257 259 259 260 261 261 260 259 260 260 260 261 261 260 260 261 262 262 263 264 265 266 267 268 268 269 269 269 269 269 270 272 275 276 273 270 271 273 276 278 279 279 280 281 282 282 282 283 283
235 236 236 237 237 237 238 238 238 240 240 241 242 242 242 243 244 245 246 247 249 249 245 243 243 245 248 250 251 252 252 252 252 252 252 252 252 254 256 258 259 260 259 259 260 261 261 261 261 261 260 260 260 260 261 262 262 263 264 265 266 267 267 267 267 267 268 269 269 271 272 273 273 271 270 270 272 274 275 276 277 278 280 281 281 281 282 282
236 236 237 236 236 236 236 237 239 241 242 242 243 243 243 245 246 247 249 250 251 250 247 246 244 244 246 248 248 250 252 253 254 254 253 253 253 253 254 256 257 259 260 259 260 261 261 261 262 262 261 261 262 262 262 263 263 264 264 265 266 267 266 265 265 266 267 268 269 270 271 271 269 269 271 272 272 273 273 274 275 277 278 279 279 280 280 281
236 237 237 237 236 236 236 236 238 241 243 244 244 244 244 246 248 248 250 251 250 249 248 247 247 246 246 248 249 251 252 254 254 255 255 255 254 254 255 256 257 258 259 259 259 260 260 261 262 263 264 264 264 264 264 264 264 265 265 266 266 265 265 265 265 266 266 266 268 270 269 268 267 267 270 272 273 273 273 275 276 276 277 277 278 279 279 280
235 236 238 238 238 238 238 238 238 240 242 244 244 244 245 246 247 247 247 247 246 247 247 247 247 248 248 250 252 253 254 254 254 255 256 256 256 255 256 258 258 259 260 260 259 259 260 260 261 263 264 264 265 265 265 265 266 266 266 266 265 264 265 266 265 266 266 266 267 267 267 267 267 269 270 270 271 273 274 276 276 276 276 276 277 277 278 280
235 236 238 238 239 239 240 239 240 240 242 243 244 245 245 245 245 245 245 246 246 245 245 246 247 248 249 250 252 254 254 254 254 255 255 256 256 257 257 258 259 260 260 261 260 260 261 260 261 262 263 264 264 265 266 267 267 267 266 265 264 265 266 266 266 266 266 266 265 264 265 266 268 269 270 270 272 273 274 275 276 276 275 275 276 277 278 280
236 236 237 238 238 239 240 240 240 241 242 243 244 244 243 243 244 245 246 246 246 246 245 245 246 246 247 247 249 251 253 254 254 254 255 255 256 257 258 259 259 260 260 261 261 261 261 261 261 262 264 264 264 265 267 268 267 266 265 265 266 268 268 268 267 266 264 264 264 263 264 266 268 269 270 271 272 273 274 275 275 275 275 276 277 278 279 280
236 237 237 238 238 239 240 240 240 240 241 242 243 242 242 243 244 245 245 245 245 246 245 245 245 245 245 245 246 248 250 252 253 253 254 255 256 257 258 259 260 261 261 261 261 261 261 262 262 263 263 263 265 266 267 267 267 267 268 268 270 270 269 268 267 266 264 264 264 263 265 267 268 268 270 271 273 274 275 275 276 276 276 276 277 278 278 278
236 237 237 237 238 238 239 239 239 239 240 242 243 242 242 242 242 243 245 245 245 246 246 247 248 248 248 247 246 247 249 251 252 252 253 254 255 256 257 259 260 260 261 261 262 262 263 263 262 262 263 265 266 267 266 266 268 270 271 271 271 270 270 268 267 266 265 265 264 265 266 267 267 267 269 272 273 274 275 275 276 276 275 275 276 277 277 278
236 237 237 237 238 238 238 239 239 240 241 243 244 243 242 242 243 243 244 246 246 247 247 248 249 251 251 250 248 249 249 249 250 251 252 252 253 254 255 257 258 259 261 262 263 263 263 263 263 263 264 265 265 265 266 267 269 271 272 273 273 272 270 269 267 266 266 266 267 267 267 266 266 267 269 271 272 273 274 276 276 275 275 275 275 276 277 280
235 236 236 236 237 238 239 240 241 242 243 244 245 245 243 243 243 243 244 245 246 247 246 247 248 249 250 250 249 249 249 249 249 249 250 251 251 252 253 255 257 259 260 261 262 263 263 263 263 264 264 264 264 265 266 268 270 272 273 273 271 270 269 268 268 268 269 270 270 269 268 268 269 269 269 269 270 271 272 273 273 274 274 274 274 276 278 281
236 236 236 236 237 237 239 240 242 243 244 244 244 244 243 243 243 243 244 245 246 247 247 247 247 248 249 249 249 249 249 250 249 249 249 249 250 252 253 254 256 258 260 260 261 262 263 264 264 263 262 263 264 265 266 269 270 270 269 267 267 269 270 271 272 272 271 271 272 272 272 271 270 270 269 269 269 269 269 269 271 272 273 274 275 277 280 281
237 237 236 236 236 237 238 241 242 244 245 245 245 244 244 244 244 244 245 246 247 248 248 248 248 248 248 249 249 249 249 250 250 250 249 249 250 252 254 255 256 257 259 260 260 261 263 264 264 263 263 263 264 265 266 267 267 265 265 267 269 271 272 273 274 273 272 273 273 272 273 272 271 270 270 271 271 271 271 271 273 274 275 276 278 279 280 281
237 237 237 236 236 236 237 240 242 244 245 245 246 246 245 245 245 245 245 246 246 247 248 248 248 248 248 248 249 250 250 251 251 251 251 251 252 253 254 255 256 256 258 259 260 260 261 262 263 264 264 263 263 263 264 264 264 265 267 268 269 270 271 273 273 273 274 273 272 272 274 273 272 271 271 272 273 273 274 275 275 276 277 279 279 279 280 280
238 238 237 236 236 236 237 239 241 243 244 245 246 247 247 247 247 247 247 247 247 247 248 248 248 248 249 249 251 251 252 252 252 252 252 253 252 253 253 255 256 257 257 258 259 259 260 261 263 264 264 263 262 262 263 264 265 266 266 266 268 270 271 272 273 274 274 272 271 274 275 274 273 273 273 273 274 274 275 275 276 277 278 279 279 279 279 279
238 239 239 238 238 238 238 239 242 244 246 246 247 248 249 249 248 248 248 248 249 249 249 249 249 250 251 252 253 253 253 253 252 253 254 254 253 253 253 254 256 256 257 258 258 258 259 260 261 263 264 264 263 262 262 263 264 265 265 266 268 270 271 272 273 274 273 273 273 274 274 274 275 275 275 275 274 274 275 275 276 277 278 278 278 278 278 278
237 239 240 240 240 240 240 240 241 243 245 246 247 248 248 249 250 250 250 250 250 250 250 250 251 253 254 255 255 254 253 253 254 254 255 255 255 254 253 253 254 255 256 257 257 258 258 259 260 262 263 263 263 262 262 262 263 264 266 267 268 270 271 272 273 273 273 273 273 272 272 274 276 276 276 275 275 275 275 276 276 276 276 277 277 277 278 278
236 238 240 241 242 242 242 241 241 242 243 244 246 246 247 248 249 250 251 251 251 251 252 253 253 254 255 255 255 255 255 255 255 255 255 255 254 253 253 253 254 255 256 257 258 259 259 260 261 262 262 263 263 263 263 263 263 263 264 265 267 269 270 271 271 271 271 271 271 272 272 274 275 276 275 274 274 275 275 276 276 275 276 276 277 278 278 279
234 237 239 241 242 243 243 243 242 242 243 244 245 246 247 248 248 249 251 251 252 252 253 253 254 254 254 254 255 255 256 256 256 256 255 255 255 254 255 255 255 256 257 258 259 260 261 261 261 262 263 263 264 264 264 264 264 263 263 264 267 269 270 269 269 269 269 270 271 272 272 273 273 273 273 273 274 275 275 276 276 277 277 278 279 280 281 282
234 235 238 240 241 243 244 244 243 243 243 244 245 246 247 248 249 250 251 252 253 253 253 254 253 253 253 254 254 255 256 256 256 257 257 257 257 257 257 257 257 257 258 259 259 260 262 262 262 263 264 265 266 266 265 265 264 263 263 265 268 268 268 267 267 268 270 272 271 271 272 272 271 271 272 274 275 275 276 277 278 279 280 281 282 283 285 286
233 234 237 239 240 241 243 244 244 244 244 245 245 247 247 247 248 249 250 252 253 253 254 254 254 254 254 255 255 256 257 257 258 259 259 260 260 259 259 258 258 258 258 259 260 261 262 263 264 265 266 267 267 266 266 265 264 264 266 267 267 266 266 266 267 269 270 271 272 272 272 272 271 272 274 275 275 276 277 278 279 280 282 283 284 285 287 288
Height
10780 10782 10784 10786 10788 10790 10791 10792 10794 10795 10796 10798 10799 10801 10802 10803 10804 10805 10806 10807 10808 10809 10809 10810 10811 10812 10813 10814 10814 10815 10816 10816 10816 10817 10817 10817 10817 10817 10817 10818 10818 10818 10818 10818 10818 10818 10818 10818 10818 10818 10817 10817 10817 10817 10817 10816 10816 10815 10815 10815 10814 10814 10814 10814 10815 10814 10814 10814 10814 10814 10814 10814 10814 10813 10811 10810 10811 10811 10811 10810 10811 10811 10812 10813 10813 10813 10813 10813
10776 10778 10780 10782 10784 10786 10787 10788 10790 10791 10792 10794 10796 10797 10799 10800 10801 10802 10803 10804 10805 10806 10807 10808 10808 10809 10810 10811 10812 10813 10813 10813 10814 10814 10814 10815 10815 10815 10815 10816 10816 10816 10816 10816 10816 10816 10816 10815 10815 10815 10815 10815 10815 10815 10815 10814 10814 10814 10813 10813 10812 10812 10812 10812 10812 10812 10812 10812 10812 10812 10811 10811 10811 10811 10810 10809 10809 10809 10808 10808 10808 10808 10809 10810 10810 10811 10811 10811
10772 10774 10776 10778 10780 10782 10783 10785 10786 10787 10789 10790 10792 10794 10795 10796 10798 10799 10800 10801 10802 10803 10804 10805 10806 10806 10807 10808 10809 10810 10810 10811 10811 10811 10812 10812 10812 10813 10813 10813 10813 10814 10813 10813 10813 10813 10813 10813 10813 10813 10813 10813 10813 10813 10813 10812 10812 10812 10811 10811 10810 10810 10810 10810 10810 10810 10810 10810 10810 10810 10809 10809 10809 10808 10808 10807 10807 10807 10806 10806 10806 10806 10806 10807 10807 10808 10808 10808
10768 10770 10772 10774 10776 10778 10780 10781 10782 10784 10785 10787 10788 10790 10791 10792 10794 10795 10796 10798 10799 10800 10801 10802 10803 10804 10804 10805 10806 10807 10808 10808 10808 10809 10809 10810 10810 10810 10810 10810 10811 10811 10811 10811 10811 10811 10810 10810 10810 10810 10810 10810 10810 10811 10810 10810 10810 10809 10809 10809 10808 10808 10808 10808 10808 10808 10808 10808 10808 10808 10807 10807 10807 10807 10806 10806 10806 10805 10804 10804 10804 10804 10804 10804 10805 10805 10805 10805
10763 10765 10767 10770 10772 10774 10776 10777 10779 10780 10782 10783 10784 10786 10787 10788 10790 10791 10793 10794 10795 10796 10798 10799 10800 10801 10801 10802 10803 10804 10805 10805 10805 10806 10807 10807 10807 10807 10807 10808 10808 10808 10808 10808 10808 10808 10807 10807 10807 10807 10807 10807 10808 10808 10808 10808 10807 10807 10807 10807 10806 10805 10805 10806 10805 10805 10805 10805 10806 10806 10806 10805 10805 10805 10804 10804 10804 10804 10803 10802 10801 10801 10801 10801 10801 10801 10801 10802
10757 10760 10762 10765 10767 10769 10771 10773 10775 10776 10778 10779 10780 10782 10783 10784 10786 10787 10789 10790 10792 10793 10794 10795 10796 10797 10798 10799 10800 10801 10802 10802 10802 10803 10804 10804 10804 10804 10805 10805 10805 10805 10805 10805 10805 10805 10804 10804 10805 10805 10805 10805 10805 10805 10805 10805 10805 10805 10804 10804 10804 10803 10802 10803 10803 10802 10802 10803 10803 10804 10803 10803 10803 10802 10801 10802 10802 10802 10802 10801 10800 10800 10799 10799 10798 10798 10798 10798
10752 10755 10757 10760 10762 10764 10766 10768 10770 10772 10773 10775 10776 10777 10779 10780 10781 10783 10785 10786 10787 10789 10790 10791 10792 10794 10795 10796 10797 10798 10799 10799 10799 10801 10801 10801 10801 10801 10802 10802 10802 10802 10802 10802 10802 10802 10802 10802 10802 10802 10802 10802 10802 10802 10802 10802 10802 10802 10802 10802 10801 10800 10800 10800 10800 10799 10799 10800 10800 10801 10801 10801 10801 10800 10799 10798 10799 10799 10799 10799 10798 10798 10798 10797 10797 10796 10795 10794
10747 10749 10752 10754 10757 10759 10761 10763 10765 10767 10769 10770 10772 10773 10775 10776 10777 10779 10781 10782 10783 10785 10786 10787 10788 10789 10791 10792 10793 10795 10796 10796 10796 10798 10798 10798 10798 10798 10798 10799 10799 10799 10799 10799 10799 10799 10799 10799 10799 10799 10799 10799 10799 10799 10800 10800 10800 10800 10799 10799 10799 10798 10798 10797 10797 10796 10797 10797 10798 10799 10798 10798 10798 10797 10796 10795 10795 10796 10796 10796 10796 10796 10796 10795 10795 10794 10793 10792
10741 10744 10746 10749 10752 10754 10756 10757 10760 10762 10763 10765 10767 10769 10770 10772 10773 10775 10776 10778 10779 10780 10782 10783 10784 10785 10786 10788 10789 10791 10793 10792 10792 10794 10795 10795 10795 10795 10795 10795 10796 10796 10796 10796 10796 10796 10796 10796 10796 10796 10796 10796 10796 10796 10796 10797 10797 10797 10797 10797 10796 10796 10795 10794 10794 10793 10794 10794 10795 10796 10796 10795 10795 10794 10793 10793 10793 10793 10793 10792 10792 10793 10793 10793 10792 10791 10791 10790
10736 10738 10741 10744 10746 10748 10750 10752 10755 10757 10758 10760 10762 10764 10766 10767 10769 10770 10772 10773 10775 10776 10777 10779 10780 10781 10782 10783 10784 10786 10790 10789 10788 10790 10791 10792 10792 10792 10792 10792 10792 10793 10793 10793 10793 10793 10793 10793 10793 10793 10793 10793 10793 10793 10793 10793 10793 10794 10794 10794 10794 10793 10793 10792 10791 10791 10791 10792 10792 10793 10793 10792 10792 10791 10790 10789 10790 10790 10789 10789 10789 10789 10789 10789 10789 10788 10788 10787
10730 10732 10735 10738 10740 10743 10745 10747 10749 10751 10753 10755 10757 10759 10761 10762 10764 10765 10767 10768 10770 10771 10773 10774 10775 10776 10777 10778 10779 10782 10785 10785 10784 10786 10787 10788 10788 10788 10789 10789 10789 10790 10790 10790 10790 10790 10790 10790 10790 10790 10789 10789 10790 10790 10790 10790 10790 10790 10791 10791 10791 10790 10790 10789 10789 10789 10789 10789 10789 10790 10790 10789 10789 10789 10788 10787 10787 10787 10786 10786 10786 10786 10786 10786 10785 10785 10784 10784
10724 10727 10730 10732 10735 10737 10739 10741 10744 10746 10748 10750 10752 10754 10756 10757 10759 10760 10762 10763 10765 10767 10768 10769 10771 10772 10773 10773 10774 10777 10780 10780 10780 10782 10783 10784 10784 10785 10785 10785 10786 10786 10787 10787 10787 10787 10787 10787 10787 10787 10786 10786 10786 10787 10786 10786 10787 10787 10787 10788 10787 10787 10786 10787 10787 10787 10787 10786 10786 10786 10786 10786 10786 10786 10785 10785 10784 10784 10784 10784 10783 10783 10783 10782 10782 10782 10781 10781
10719 10721 10724 10726 10729 10731 10733 10736 10738 10740 10742 10744 10746 10748 10750 10752 10753 10755 10757 10758 10760 10761 10763 10764 10766 10767 10769 10768 10769 10772 10775 10775 10776 10778 10779 10780 10780 10780 10781 10782 10782 10783 10783 10783 10783 10784 10784 10784 10784 10783 10783 10783 10783 10783 10783 10783 10784 10784 10784 10784 10783 10783 10784 10785 10786 10785 10785 10784 10783 10783 10783 10783 10784 10783 10782 10782 10781 10781 10781 10781 10781 10780 10779 10779 10779 10778 10778 10778
10713 10716 10719 10721 10724 10726 10728 10730 10732 10734 10736 10738 10740 10742 10744 10746 10748 10750 10751 10753 10754 10756 10757 10760 10761 10763 10764 10764 10764 10767 10769 10770 10772 10773 10774 10775 10775 10776 10777 10778 10779 10779 10779 10780 10780 10780 10780 10781 10781 10780 10780 10780 10779 10780 10780 10780 10781 10781 10780 10779 10778 10779 10781 10783 10783 10783 10783 10782 10781 10780 10780 10780 10781 10780 10779 10779 10778 10778 10778 10778 10778 10777 10777 10776 10776 10775 10775 10774
10707 10710 10713 10716 10718 10720 10722 10724 10726 10728 10730 10732 10734 10736 10738 10740 10742 10744 10746 10748 10749 10751 10752 10755 10756 10758 10760 10759 10759 10762 10764 10765 10767 10768 10769 10770 10771 10772 10773 10774 10775 10775 10775 10775 10776 10776 10777 10777 10777 10777 10776 10776 10776 10777 10778 10778 10778 10778 10777 10774 10774 10776 10779 10780 10780 10780 10780 10779 10778 10778 10777 10777 10778 10778 10776 10775 10775 10775 10775 10775 10775 10774 10774 10774 10773 10772 10772 10772
10700 10703 10707 10710 10712 10715 10717 10718 10720 10722 10724 10726 10728 10730 10732 10734 10737 10738 10741 10742 10744 10746 10747 10750 10751 10753 10755 10754 10754 10757 10759 10761 10762 10763 10764 10764 10766 10767 10768 10770 10770 10771 10771 10771 10772 10772 10773 10773 10773 10773 10772 10772 10772 10774 10776 10776 10774 10774 10773 10770 10771 10773 10774 10776 10776 10777 10777 10776 10775 10775 10774 10773 10774 10774 10773 10772 10772 10771 10771 10771 10771 10771 10771 10770 10770 10770 10769 10769
10693 10696 10700 10703 10705 10708 10710 10712 10714 10716 10718 10720 10722 10724 10726 10729 10731 10733 10735 10737 10739 10740 10742 10745 10745 10748 10751 10750 10749 10751 10753 10756 10757 10758 10759 10760 10761 10762 10764 10765 10766 10766 10766 10767 10768 10768 10769 10770 10769 10769 10767 10767 10768 10771 10773 10772 10770 10770 10769 10768 10768 10769 10770 10771 10772 10773 10773 10773 10772 10771 10770 10770 10770 10770 10769 10769 10768 10768 10767 10767 10767 10767 10767 10766 10766 10766 10765 10765
10686 10689 10693 10696 10698 10700 10704 10706 10708 10710 10713 10715 10717 10719 10721 10724 10726 10728 10730 10731 10733 10735 10737 10739 10740 10744 10747 10745 10744 10745 10748 10751 10752 10753 10754 10755 10756 10757 10758 10760 10761 10761 10762 10762 10763 10764 10765 10765 10765 10764 10761 10763 10766 10769 10769 10767 10767 10767 10766 10765 10765 10765 10765 10766 10769 10770 10769 10769 10767 10767 10766 10766 10766 10766 10765 10765 10764 10764 10763 10762 10762 10762 10762 10762 10761 10761 10761 10760
10679 10683 10686 10689 10691 10693 10696 10699 10702 10704 10707 10709 10711 10713 10716 10718 10720 10722 10724 10725 10728 10729 10731 10734 10736 10740 10741 10740 10739 10740 10742 10745 10746 10747 10749 10750 10750 10752 10753 10755 10755 10756 10757 10757 10758 10760 10761 10761 10761 10757 10756 10760 10764 10764 10764 10763 10763 10763 10763 10762 10762 10761 10760 10761 10765 10766 10765 10765 10763 10762 10761 10761 10762 10762 10761 10760 10760 10759 10759 10758 10758 10757 10757 10756 10756 10756 10755 10755
10673 10676 10680 10683 10684 10686 10689 10692 10695 10697 10700 10703 10706 10708 10710 10713 10714 10716 10718 10720 10721 10723 10727 10730 10732 10735 10736 10735 10735 10736 10737 10740 10741 10742 10743 10744 10745 10746 10748 10749 10749 10750 10751 10752 10754 10755 10756 10758 10754 10750 10753 10758 10759 10759 10759 10759 10758 10759 10759 10759 10758 10757 10756 10757 10761 10761 10761 10761 10758 10757 10757 10755 10756 10757 10756 10755 10755 10755 10754 10754 10753 10752 10752 10752 10751 10751 10750 10750
10664 10668 10673 10675 10678 10680 10683 10686 10688 10691 10693 10696 10699 10702 10704 10705 10707 10710 10711 10713 10716 10718 10722 10725 10728 10730 10730 10730 10730 10732 10733 10735 10736 10736 10737 10738 10739 10741 10742 10742 10743 10744 10745 10747 10749 10749 10751 10753 10747 10745 10751 10754 10753 10754 10754 10754 10754 10755 10755 10755 10755 10753 10752 10754 10756 10756 10756 10757 10755 10753 10753 10751 10750 10752 10751 10751 10750 10749 10750 10749 10749 10748 10747 10747 10746 10746 10745 10745
10656 10661 10664 10667 10671 10673 10676 10680 10683 10685 10687 10690 10692 10694 10695 10697 10700 10703 10704 10708 10711 10713 10716 10720 10723 10724 10724 10725 10727 10727 10728 10730 10730 10730 10731 10733 10734 10735 10735 10736 10737 10738 10740 10742 10742 10743 10747 10747 10741 10742 10748 10747 10748 10750 10749 10750 10750 10750 10750 10751 10750 10748 10749 10750 10751 10751 10751 10752 10751 10749 10749 10747 10745 10746 10746 10746 10745 10745 10745 10744 10744 10743 10743 10742 10741 10741 10740 10740
10648 10653 10656 10660 10664 10666 10670 10673 10677 10681 10682 10684 10685 10686 10687 10690 10692 10695 10697 10703 10706 10708 10711 10715 10717 10719 10719 10720 10721 10721 10724 10724 10724 10725 10725 10726 10727 10728 10730 10730 10731 10734 10735 10735 10735 10738 10742 10740 10737 10739 10741 10741 10743 10744 10744 10745 10745 10745 10746 10746 10745 10743 10745 10746 10746 10746 10747 10747 10746 10745 10745 10742 10741 10741 10741 10741 10741 10740 10740 10739 10739 10738 10738 10737 10736 10735 10735 10734
10642 10645 10648 10653 10656 10660 10662 10665 10671 10675 10675 10676 10677 10677 10680 10683 10685 10688 10691 10696 10702 10704 10705 10709 10712 10713 10713 10714 10715 10717 10719 10717 10717 10718 10718 10719 10719 10721 10723 10723 10725 10729 10728 10727 10730 10734 10737 10735 10733 10733 10734 10736 10738 10739 10739 10739 10740 10741 10741 10741 10740 10739 10740 10741 10741 10742 10742 10742 10741 10741 10742 10738 10735 10737 10736 10735 10735 10735 10735 10734 10733 10733 10732 10731 10731 10730 10729 10729
10634 10637 10642 10645 10649 10653 10654 10660 10666 10665 10666 10668 10668 10669 10673 10676 10678 10681 10683 10689 10700 10702 10699 10703 10707 10708 10708 10709 10711 10710 10710 10712 10712 10711 10711 10712 10712 10715 10716 10717 10720 10722 10721 10721 10725 10729 10731 10729 10727 10726 10728 10731 10733 10734 10732 10732 10735 10738 10737 10735 10734 10735 10735 10736 10737 10737 10738 10738 10735 10736 10738 10735 10731 10732 10731 10730 10730 10730 10729 10729 10728 10728 10727 10726 10725 10725 10724 10724
10627 10631 10636 10639 10643 10645 10648 10657 10657 10655 10659 10659 10658 10662 10666 10669 10670 10674 10676 10682 10697 10700 10694 10695 10700 10703 10703 10702 10703 10702 10704 10709 10705 10702 10704 10704 10705 10708 10710 10712 10714 10715 10714 10714 10720 10725 10724 10721 10721 10721 10723 10725 10728 10727 10725 10726 10731 10734 10731 10728 10729 10730 10730 10730 10731 10732 10734 10733 10731 10731 10733 10732 10728 10726 10726 10725 10725 10724 10724 10723 10723 10723 10722 10721 10720 10720 10719 10719
10620 10625 10629 10634 10637 10638 10644 10650 10646 10648 10652 10647 10649 10655 10658 10661 10663 10667 10669 10675 10693 10698 10690 10689 10693 10697 10697 10695 10696 10695 10701 10703 10695 10695 10698 10697 10699 10701 10704 10707 10706 10706 10707 10708 10715 10719 10715 10713 10715 10716 10718 10720 10721 10720 10718 10721 10726 10728 10725 10722 10724 10724 10724 10726 10726 10727 10729 10729 10728 10726 10725 10728 10727 10722 10720 10720 10720 10719 10719 10718 10718 10718 10717 10716 10715 10715 10714 10713
10612 10616 10622 10628 10631 10634 10639 10641 10640 10642 10642 10638 10643 10648 10649 10653 10656 10659 10659 10669 10690 10694 10686 10684 10684 10688 10690 10689 10689 10689 10694 10694 10688 10689 10691 10690 10694 10696 10698 10701 10698 10699 10701 10703 10710 10711 10708 10708 10710 10710 10712 10714 10713 10712 10713 10715 10719 10721 10719 10717 10718 10718 10719 10720 10721 10723 10724 10725 10725 10720 10717 10723 10725 10719 10715 10716 10714 10713 10713 10713 10712 10712 10711 10710 10710 10709 10708 10707
10603 10607 10614 10619 10623 10628 10633 10636 10637 10634 10631 10632 10635 10638 10641 10643 10647 10649 10650 10664 10685 10688 10682 10681 10678 10679 10681 10681 10681 10681 10684 10685 10683 10684 10683 10684 10689 10690 10691 10693 10692 10695 10696 10698 10702 10703 10703 10703 10702 10704 10706 10706 10705 10706 10708 10709 10711 10714 10713 10712 10712 10712 10714 10714 10716 10718 10718 10721 10721 10713 10711 10718 10722 10718 10711 10710 10709 10707 10707 10707 10706 10706 10705 10705 10704 10703 10702 10701
10595 10600 10605 10609 10616 10622 10627 10631 10630 10623 10622 10625 10627 10630 10631 10633 10637 10637 10643 10663 10678 10679 10679 10677 10673 10671 10671 10672 10673 10673 10675 10676 10676 10677 10677 10678 10680 10682 10685 10685 10687 10690 10690 10692 10695 10696 10696 10696 10696 10698 10698 10698 10699 10700 10701 10702 10704 10705 10705 10706 10705 10707 10708 10709 10711 10711 10712 10717 10714 10707 10707 10712 10719 10717 10707 10704 10704 10702 10701 10701 10700 10700 10699 10699 10698 10697 10696 10695
10587 10591 10595 10600 10607 10614 10619 10623 10619 10613 10615 10618 10618 10618 10618 10622 10624 10625 10642 10664 10668 10669 10674 10672 10669 10667 10664 10664 10665 10665 10667 10667 10668 10670 10671 10672 10673 10676 10679 10679 10681 10683 10685 10688 10688 10688 10689 10690 10690 10691 10692 10693 10692 10693 10694 10695 10696 10697 10698 10699 10699 10701 10703 10703 10705 10704 10706 10710 10706 10702 10704 10707 10714 10713 10704 10700 10698 10696 10696 10695 10694 10694 10693 10692 10691 10689 10689 10688
10578 10582 10586 10590 10598 10605 10612 10615 10610 10604 10606 10608 10605 10605 10608 10610 10612 10625 10650 10661 10656 10662 10669 10667 10666 10662 10656 10656 10656 10656 10658 10659 10660 10663 10665 10666 10668 10671 10673 10673 10675 10676 10680 10682 10678 10679 10682 10684 10684 10685 10686 10685 10684 10685 10686 10688 10689 10690 10692 10692 10692 10695 10696 10697 10698 10697 10699 10702 10700 10699 10699 10702 10708 10705 10698 10697 10694 10691 10690 10688 10687 10687 10685 10685 10683 10682 10681 10680
10569 10573 10576 10581 10589 10597 10602 10605 10601 10595 10597 10598 10593 10596 10599 10597 10609 10635 10651 10651 10649 10656 10660 10659 10658 10655 10650 10649 10649 10648 10648 10650 10653 10656 10658 10661 10664 10667 10667 10668 10669 10669 10672 10673 10670 10673 10676 10677 10678 10678 10677 10676 10676 10678 10679 10681 10682 10684 10686 10685 10685 10688 10688 10690 10690 10689 10692 10694 10695 10695 10695 10698 10701 10695 10690 10691 10690 10688 10685 10682 10682 10681 10679 10678 10676 10675 10674 10673
10560 10563 10567 10572 10580 10586 10590 10594 10592 10587 10587 10588 10586 10587 10585 10590 10616 10640 10642 10642 10645 10647 10649 10650 10649 10647 10645 10644 10642 10641 10640 10643 10646 10648 10651 10655 10658 10661 10661 10661 10661 10661 10663 10664 10665 10667 10668 10671 10671 10668 10669 10670 10670 10671 10673 10674 10676 10678 10678 10677 10680 10680 10678 10681 10682 10683 10686 10687 10688 10690 10690 10693 10693 10688 10684 10682 10682 10681 10679 10677 10676 10675 10673 10671 10669 10667 10667 10666
10550 10552 10557 10562 10569 10575 10582 10586 10585 10580 10577 10578 10577 10573 10575 10595 10624 10634 10632 10634 10635 10635 10639 10639 10638 10639 10639 10638 10638 10636 10635 10638 10640 10640 10644 10648 10652 10654 10654 10654 10655 10654 10654 10656 10658 10659 10661 10665 10664 10661 10663 10663 10664 10665 10666 10667 10669 10670 10670 10671 10673 10669 10667 10672 10675 10677 10679 10680 10683 10684 10683 10685 10684 10681 10679 10676 10673 10672 10671 10671 10670 10668 10666 10663 10661 10661 10660 10659
10539 10542 10546 10553 10562 10570 10575 10576 10576 10572 10568 10567 10562 10559 10576 10606 10621 10619 10620 10622 10620 10623 10626 10625 10627 10631 10634 10635 10635 10633 10632 10632 10633 10634 10637 10640 10644 10648 10649 10648 10646 10646 10647 10646 10648 10652 10654 10658 10657 10655 10656 10656 10656 10658 10659 10660 10662 10663 10664 10664 10662 10658 10660 10665 10668 10670 10671 10673 10678 10678 10676 10676 10675 10675 10674 10669 10666 10664 10663 10663 10661 10659 10657 10654 10654 10653 10653 10652
10529 10533 10537 10547 10557 10562 10564 10565 10564 10560 10557 10553 10547 10556 10584 10603 10605 10604 10608 10609 10610 10612 10612 10613 10620 10625 10628 10631 10630 10629 10626 10626 10628 10630 10631 10633 10637 10642 10643 10640 10638 10640 10639 10635 10639 10645 10647 10650 10650 10648 10648 10649 10649 10651 10652 10654 10655 10655 10656 10655 10651 10651 10655 10656 10658 10663 10663 10665 10671 10671 10669 10669 10669 10668 10666 10661 10659 10658 10656 10655 10652 10648 10647 10646 10646 10646 10645 10644
10520 10523 10528 10540 10548 10551 10551 10551 10550 10546 10545 10539 10536 10555 10582 10591 10592 10596 10598 10599 10601 10600 10600 10605 10612 10617 10620 10623 10624 10622 10619 10621 10624 10624 10624 10627 10632 10636 10635 10631 10630 10632 10629 10626 10632 10637 10637 10639 10642 10641 10641 10641 10641 10644 10647 10648 10646 10646 10646 10645 10644 10647 10649 10648 10650 10654 10654 10656 10662 10664 10663 10663 10663 10660 10657 10654 10651 10649 10647 10645 10640 10638 10637 10637 10638 10638 10637 10635
10510 10511 10519 10532 10537 10539 10539 10537 10535 10533 10530 10525 10530 10556 10579 10583 10585 10586 10585 10589 10590 10588 10592 10599 10601 10604 10609 10614 10616 10615 10613 10616 10619 10618 10619 10622 10626 10630 10627 10622 10622 10623 10619 10618 10624 10628 10628 10630 10634 10634 10632 10633 10635 10639 10640 10638 10636 10636 10639 10640 10640 10641 10641 10641 10641 10643 10645 10647 10652 10655 10657 10658 10657 10653 10649 10646 10643 10639 10636 10633 10630 10628 10629 10629 10629 10628 10626 10624
10500 10499 10510 10524 10525 10527 10528 10522 10518 10516 10514 10518 10531 10556 10572 10571 10571 10574 10574 10577 10578 10579 10586 10591 10590 10593 10600 10604 10606 10606 10607 10610 10612 10612 10614 10618 10620 10623 10620 10615 10614 10612 10609 10610 10616 10620 10620 10620 10624 10624 10624 10627 10631 10631 10629 10628 10629 10630 10633 10634 10633 10632 10632 10633 10634 10635 10636 10638 10642 10646 10650 10653 10650 10645 10641 10639 10635 10629 10624 10622 10620 10619 10619 10619 10619 10617 10615 10615
10489 10489 10501 10513 10512 10515 10515 10505 10501 10502 10506 10516 10532 10552 10561 10558 10561 10566 10566 10567 10569 10573 10580 10581 10581 10585 10589 10593 10596 10597 10597 10601 10605 10606 10608 10613 10614 10614 10612 10607 10604 10602 10601 10604 10609 10611 10609 10609 10613 10616 10619 10622 10622 10621 10620 10622 10624 10624 10625 10627 10626 10624 10623 10623 10626 10628 10627 10629 10634 10637 10642 10646 10643 10638 10636 10630 10624 10619 10615 10613 10611 10609 10609 10609 10608 10607 10606 10607
10477 10480 10492 10499 10499 10502 10499 10490 10491 10494 10499 10514 10531 10542 10545 10546 10552 10556 10556 10558 10560 10564 10569 10571 10574 10576 10578 10583 10585 10586 10587 10591 10597 10599 10602 10606 10605 10603 10602 10599 10597 10596 10596 10598 10602 10601 10598 10600 10604 10609 10612 10612 10612 10614 10615 10616 10617 10618 10619 10619 10615 10613 10613 10613 10617 10622 10620 10622 10625 10625 10630 10637 10635 10629 10626 10620 10615 10613 10610 10605 10600 10599 10600 10599 10597 10598 10599 10599
10467 10473 10482 10485 10486 10489 10484 10478 10481 10483 10491 10511 10522 10524 10528 10535 10541 10543 10547 10550 10551 10554 10559 10562 10566 10567 10569 10572 10574 10576 10579 10581 10587 10592 10594 10596 10596 10595 10595 10593 10592 10591 10589 10591 10594 10592 10589 10591 10595 10599 10602 10603 10604 10608 10609 10609 10611 10610 10609 10607 10604 10606 10606 10605 10610 10614 10614 10616 10616 10613 10619 10626 10623 10617 10613 10610 10607 10604 10601 10597 10594 10592 10591 10589 10590 10591 10590 10589
10458 10463 10470 10472 10474 10475 10471 10467 10472 10477 10488 10502 10505 10508 10518 10526 10530 10536 10540 10541 10543 10545 10548 10552 10557 10558 10559 10561 10563 10567 10569 10571 10578 10583 10584 10587 10589 10589 10587 10586 10586 10584 10582 10583 10585 10583 10582 10582 10583 10586 10592 10597 10599 10601 10602 10602 10599 10597 10598 10599 10599 10600 10597 10598 10601 10601 10605 10611 10607 10602 10608 10613 10609 10604 10601 10600 10596 10591 10589 10589 10588 10584 10582 10582 10584 10582 10580 10578
10448 10450 10454 10458 10460 10460 10459 10461 10466 10472 10481 10486 10489 10498 10508 10512 10519 10527 10529 10529 10532 10535 10537 10542 10546 10547 10548 10550 10554 10558 10561 10564 10570 10573 10575 10579 10582 10581 10579 10578 10578 10576 10575 10575 10576 10575 10574 10573 10572 10576 10584 10589 10591 10592 10593 10591 10587 10589 10594 10594 10592 10591 10590 10590 10590 10590 10597 10602 10595 10593 10598 10598 10594 10591 10590 10590 10584 10578 10579 10579 10576 10574 10574 10575 10574 10571 10569 10567
10434 10435 10438 10443 10446 10446 10450 10455 10456 10460 10469 10475 10479 10488 10494 10500 10510 10515 10513 10516 10522 10526 10528 10531 10533 10534 10536 10541 10547 10551 10555 10557 10558 10561 10567 10571 10572 10571 10569 10568 10568 10567 10566 10567 10567 10565 10564 10565 10566 10568 10572 10577 10580 10583 10584 10582 10581 10584 10587 10586 10584 10583 10582 10580 10580 10583 10586 10584 10586 10590 10585 10579 10580 10578 10578 10579 10573 10567 10568 10566 10565 10566 10565 10564 10562 10560 10558 10556
10420 10420 10425 10431 10434 10435 10441 10448 10450 10455 10464 10468 10472 10479 10483 10489 10496 10497 10499 10507 10513 10516 10517 10517 10520 10524 10529 10536 10540 10542 10545 10545 10545 10551 10557 10558 10560 10561 10559 10560 10560 10557 10556 10556 10555 10554 10555 10559 10561 10560 10561 10565 10569 10573 10575 10574 10574 10575 10577 10578 10577 10575 10572 10570 10572 10575 10571 10569 10578 10582 10570 10567 10570 10565 10564 10566 10560 10555 10555 10555 10556 10556 10554 10552 10550 10549 10547 10544
10407 10409 10415 10420 10421 10424 10433 10443 10447 10451 10455 10456 10460 10468 10471 10475 10480 10483 10491 10498 10500 10501 10503 10504 10512 10520 10524 10527 10527 10527 10531 10532 10534 10542 10547 10547 10548 10549 10548 10549 10549 10546 10545 10544 10544 10544 10545 10552 10556 10553 10552 10556 10558 10561 10565 10565 10566 10567 10568 10570 10570 10567 10563 10562 10563 10563 10559 10559 10566 10565 10560 10563 10562 10552 10550 10551 10545 10542 10543 10544 10546 10545 10542 10540 10538 10536 10534 10531
10397 10400 10406 10409 10410 10415 10425 10434 10437 10439 10443 10445 10448 10455 10460 10464 10470 10474 10479 10482 10484 10488 10491 10496 10507 10514 10513 10513 10512 10511 10516 10521 10526 10532 10534 10533 10534 10534 10535 10537 10538 10537 10534 10533 10534 10535 10536 10544 10547 10543 10543 10546 10547 10550 10554 10554 10557 10560 10560 10561 10563 10561 10556 10554 10554 10551 10546 10549 10552 10549 10551 10559 10554 10541 10536 10534 10530 10531 10532 10533 10533 10531 10529 10528 10526 10522 10519 10516
10388 10392 10396 10398 10401 10407 10415 10422 10425 10429 10434 10436 10439 10446 10451 10455 10461 10464 10465 10466 10472 10479 10482 10487 10498 10502 10499 10498 10497 10498 10505 10511 10513 10516 10517 10517 10520 10523 10525 10526 10527 10527 10524 10523 10525 10525 10526 10533 10537 10534 10532 10535 10539 10541 10541 10542 10545 10547 10551 10556 10558 10555 10547 10543 10542 10537 10533 10540 10542 10536 10540 10551 10546 10531 10521 10520 10521 10521 10520 10519 10518 10517 10517 10516 10512 10508 10504 10502
10379 10383 10386 10388 10392 10398 10403 10409 10414 10418 10422 10426 10432 10439 10442 10447 10454 10455 10452 10454 10461 10467 10471 10479 10486 10486 10482 10484 10485 10489 10494 10497 10497 10501 10504 10505 10509 10513 10514 10515 10516 10516 10514 10514 10515 10515 10516 10521 10525 10524 10520 10525 10531 10529 10528 10531 10528 10529 10544 10554 10550 10544 10537 10530 10528 10526 10525 10529 10527 10522 10529 10537 10530 10518 10512 10510 10509 10508 10507 10506 10504 10503 10503 10501 10497 10493 10489 10486
10368 10373 10377 10380 10382 10386 10390 10396 10401 10405 10410 10418 10425 10429 10432 10438 10443 10442 10439 10444 10451 10456 10461 10468 10471 10469 10470 10473 10475 10478 10481 10482 10484 10489 10492 10493 10497 10500 10500 10502 10504 10503 10503 10504 10504 10505 10507 10510 10514 10513 10510 10513 10518 10516 10517 10515 10508 10517 10542 10548 10535 10528 10523 10518 10518 10519 10517 10514 10509 10509 10516 10517 10511 10507 10503 10498 10495 10494 10494 10493 10492 10492 10491 10487 10483 10478 10474 10472